Voltar ao catálogo

CZ-6A DEB

AtivoSSO
NORAD 56618·DEBRIS·🇨🇳 China

Lançado Nov 11, 2022 de Taiyuan Satellite Launch Center

Loading…

Próximas Passagens (próximas 24 horas)

TLE

AtualizadoSource: Space-Track

Época: Sep 13, 2026, 06:54 UTC

1 56618U 22151AES 26256.28750682  .00000228  00000-0  14930-3 0  9998
2 56618  98.8425 256.7057 0042448  83.0269 277.5727 14.11194225174544

Acompanhe CZ-6A DEB em tempo real com AllMySat

Download on the App Store